Time,TemperatureF,DewpointF,PressureIn,WindDirection,WindDirectionDegrees,WindSpeedMPH,WindSpeedGustMPH,Humidity,HourlyPrecipIn,Conditions,Clouds,dailyrainin,SoftwareType,DateUTC
2013-02-03 00:11:00,55.4,54.6,29.97,ESE,112,0.0,-999.0,97,-99.99,,,0.00,Acu-Link.com,2013-02-03 05:11:00,
2013-02-03 00:26:00,55.2,54.6,29.97,ESE,112,0.0,-999.0,98,-99.99,,,0.00,Acu-Link.com,2013-02-03 05:26:00,
2013-02-03 00:41:00,55.6,55.3,29.96,ESE,112,0.0,-999.0,99,-99.99,,,0.00,Acu-Link.com,2013-02-03 05:41:00,
2013-02-03 00:56:00,55.2,54.9,29.95,ESE,112,0.0,-999.0,99,-99.99,,,0.00,Acu-Link.com,2013-02-03 05:56:00,
2013-02-03 01:11:00,55.2,54.9,29.96,ESE,112,0.0,-999.0,99,-99.99,,,0.00,Acu-Link.com,2013-02-03 06:11:00,
2013-02-03 01:27:00,54.9,54.6,29.95,ESE,112,0.0,-999.0,99,-99.99,,,0.00,Acu-Link.com,2013-02-03 06:27:00,
2013-02-03 01:42:00,55.0,54.7,29.94,ESE,112,0.0,-999.0,99,-99.99,,,0.00,Acu-Link.com,2013-02-03 06:42:00,
2013-02-03 01:57:00,55.0,54.7,29.95,ESE,112,1.7,-999.0,99,-99.99,,,0.00,Acu-Link.com,2013-02-03 06:57:00,
2013-02-03 02:12:00,55.0,54.7,29.94,ESE,112,2.7,-999.0,99,-99.99,,,0.00,Acu-Link.com,2013-02-03 07:12:00,
2013-02-03 02:27:00,55.2,54.9,29.95,ESE,112,0.0,-999.0,99,-99.99,,,0.00,Acu-Link.com,2013-02-03 07:27:00,
2013-02-03 02:42:00,55.0,54.7,29.93,ESE,112,0.0,-999.0,99,-99.99,,,0.00,Acu-Link.com,2013-02-03 07:42:00,
2013-02-03 02:57:00,54.9,54.6,29.94,ESE,112,0.0,-999.0,99,-99.99,,,0.00,Acu-Link.com,2013-02-03 07:57:00,
2013-02-03 03:12:00,55.0,54.7,29.94,ESE,112,1.1,-999.0,99,-99.99,,,0.00,Acu-Link.com,2013-02-03 08:12:00,
2013-02-03 03:27:00,55.4,55.1,29.93,ESE,112,1.1,-999.0,99,-99.99,,,0.00,Acu-Link.com,2013-02-03 08:27:00,
2013-02-03 03:43:00,55.4,55.1,29.93,ESE,112,1.7,-999.0,99,-99.99,,,0.00,Acu-Link.com,2013-02-03 08:43:00,
2013-02-03 03:58:00,55.4,55.1,29.94,ESE,112,0.0,-999.0,99,-99.99,,,0.00,Acu-Link.com,2013-02-03 08:58:00,
2013-02-03 04:13:00,55.6,55.3,29.94,ESE,112,0.0,-999.0,99,-99.99,,,0.00,Acu-Link.com,2013-02-03 09:13:00,
2013-02-03 04:28:00,56.1,55.8,29.94,ESE,112,1.7,-999.0,99,-99.99,,,0.00,Acu-Link.com,2013-02-03 09:28:00,
2013-02-03 04:43:00,56.1,55.5,29.94,ESE,112,0.0,-999.0,98,-99.99,,,0.00,Acu-Link.com,2013-02-03 09:43:00,
2013-02-03 04:58:00,55.9,55.1,29.94,SW,225,3.2,-999.0,97,-99.99,,,0.00,Acu-Link.com,2013-02-03 09:58:00,
2013-02-03 05:13:00,56.5,54.2,29.95,WNW,292,4.7,-999.0,92,-99.99,,,0.00,Acu-Link.com,2013-02-03 10:13:00,
2013-02-03 05:28:00,56.8,53.3,29.96,NW,315,3.2,-999.0,88,-99.99,,,0.00,Acu-Link.com,2013-02-03 10:28:00,
2013-02-03 05:43:00,56.8,53.0,29.96,WNW,292,3.7,-999.0,87,-99.99,,,0.00,Acu-Link.com,2013-02-03 10:43:00,
2013-02-03 05:59:00,56.5,52.7,29.96,NNW,337,2.7,-999.0,87,-99.99,,,0.00,Acu-Link.com,2013-02-03 10:59:00,
2013-02-03 06:14:00,56.3,52.5,29.97,NNW,337,3.2,-999.0,87,-99.99,,,0.00,Acu-Link.com,2013-02-03 11:14:00,
2013-02-03 06:29:00,56.3,52.2,29.97,NE,45,5.3,-999.0,86,-99.99,,,0.00,Acu-Link.com,2013-02-03 11:29:00,
2013-02-03 06:44:00,56.1,52.0,29.98,NNW,337,4.7,-999.0,86,-99.99,,,0.00,Acu-Link.com,2013-02-03 11:44:00,
2013-02-03 06:59:00,55.9,52.1,29.98,NNW,337,2.2,-999.0,87,-99.99,,,0.00,Acu-Link.com,2013-02-03 11:59:00,
2013-02-03 07:14:00,55.9,51.8,29.99,West,270,2.2,-999.0,86,-99.99,,,0.00,Acu-Link.com,2013-02-03 12:14:00,
2013-02-03 07:29:00,57.4,50.9,30.00,NNW,337,3.7,-999.0,79,-99.99,,,0.00,Acu-Link.com,2013-02-03 12:29:00,
2013-02-03 07:44:00,58.6,50.0,29.99,NNW,337,4.7,-999.0,73,-99.99,,,0.00,Acu-Link.com,2013-02-03 12:44:00,
2013-02-03 07:59:00,59.0,49.6,29.99,WNW,292,3.2,-999.0,71,-99.99,,,0.00,Acu-Link.com,2013-02-03 12:59:00,
2013-02-03 08:15:00,60.1,47.5,30.00,NNW,337,5.8,-999.0,63,-99.99,,,0.00,Acu-Link.com,2013-02-03 13:15:00,
2013-02-03 08:30:00,61.5,47.0,30.01,NNW,337,5.3,-999.0,59,-99.99,,,0.00,Acu-Link.com,2013-02-03 13:30:00,
2013-02-03 08:45:00,62.4,47.4,30.01,NW,315,3.7,-999.0,58,-99.99,,,0.00,Acu-Link.com,2013-02-03 13:45:00,
2013-02-03 09:00:00,63.3,48.3,30.01,NW,315,2.2,-999.0,58,-99.99,,,0.00,Acu-Link.com,2013-02-03 14:00:00,
2013-02-03 09:15:00,64.6,47.6,30.02,NE,45,6.3,-999.0,54,-99.99,,,0.00,Acu-Link.com,2013-02-03 14:15:00,
2013-02-03 09:30:00,65.3,47.7,30.02,NW,315,5.3,-999.0,53,-99.99,,,0.00,Acu-Link.com,2013-02-03 14:30:00,
2013-02-03 09:45:00,67.1,48.9,30.02,NW,315,7.8,-999.0,52,-99.99,,,0.00,Acu-Link.com,2013-02-03 14:45:00,
2013-02-03 10:00:00,67.8,48.5,30.02,NW,315,3.7,-999.0,50,-99.99,,,0.00,Acu-Link.com,2013-02-03 15:00:00,
2013-02-03 10:15:00,68.5,49.1,30.02,NNW,337,6.8,-999.0,50,-99.99,,,0.00,Acu-Link.com,2013-02-03 15:15:00,
2013-02-03 10:31:00,68.9,50.0,30.02,NW,315,6.8,-999.0,51,-99.99,,,0.00,Acu-Link.com,2013-02-03 15:31:00,
2013-02-03 10:46:00,69.4,49.9,30.02,West,270,5.3,-999.0,50,-99.99,,,0.00,Acu-Link.com,2013-02-03 15:46:00,
2013-02-03 11:01:00,71.2,50.5,30.01,West,270,9.4,-999.0,48,-99.99,,,0.00,Acu-Link.com,2013-02-03 16:01:00,
2013-02-03 11:16:00,71.4,50.1,30.00,WNW,292,6.3,-999.0,47,-99.99,,,0.00,Acu-Link.com,2013-02-03 16:16:00,
2013-02-03 11:31:00,72.7,50.1,29.99,West,270,5.8,-999.0,45,-99.99,,,0.00,Acu-Link.com,2013-02-03 16:31:00,
2013-02-03 11:46:00,71.6,48.5,29.98,NNE,22,7.8,-999.0,44,-99.99,,,0.00,Acu-Link.com,2013-02-03 16:46:00,
2013-02-03 12:01:00,73.4,48.9,29.98,North,0,9.4,-999.0,42,-99.99,,,0.00,Acu-Link.com,2013-02-03 17:01:00,
2013-02-03 12:16:00,73.0,48.5,29.98,WNW,292,5.3,-999.0,42,-99.99,,,0.00,Acu-Link.com,2013-02-03 17:16:00,
2013-02-03 12:31:00,73.2,48.1,29.97,NW,315,7.8,-999.0,41,-99.99,,,0.00,Acu-Link.com,2013-02-03 17:31:00,
2013-02-03 12:47:00,72.9,46.5,29.96,WNW,292,2.7,-999.0,39,-99.99,,,0.00,Acu-Link.com,2013-02-03 17:47:00,
2013-02-03 13:02:00,72.7,47.0,29.95,West,270,8.9,-999.0,40,-99.99,,,0.00,Acu-Link.com,2013-02-03 18:02:00,
2013-02-03 13:17:00,72.7,46.3,29.95,WNW,292,7.8,-999.0,39,-99.99,,,0.00,Acu-Link.com,2013-02-03 18:17:00,
2013-02-03 13:32:00,72.5,45.4,29.94,NW,315,4.2,-999.0,38,-99.99,,,0.00,Acu-Link.com,2013-02-03 18:32:00,
2013-02-03 13:47:00,73.4,44.8,29.94,NNE,22,3.2,-999.0,36,-99.99,,,0.00,Acu-Link.com,2013-02-03 18:47:00,
2013-02-03 14:02:00,72.5,42.5,29.92,NNE,22,4.2,-999.0,34,-99.99,,,0.00,Acu-Link.com,2013-02-03 19:02:00,
2013-02-03 14:17:00,72.7,41.1,29.92,NE,45,7.3,-999.0,32,-99.99,,,0.00,Acu-Link.com,2013-02-03 19:17:00,
2013-02-03 14:32:00,73.2,39.9,29.92,NE,45,5.8,-999.0,30,-99.99,,,0.00,Acu-Link.com,2013-02-03 19:32:00,
2013-02-03 14:47:00,73.4,36.4,29.92,NNE,22,6.8,-999.0,26,-99.99,,,0.00,Acu-Link.com,2013-02-03 19:47:00,
2013-02-03 15:03:00,73.6,36.6,29.93,NNE,22,5.3,-999.0,26,-99.99,,,0.00,Acu-Link.com,2013-02-03 20:03:00,
2013-02-03 15:18:00,73.2,37.2,29.92,NNE,22,6.8,-999.0,27,-99.99,,,0.00,Acu-Link.com,2013-02-03 20:18:00,
2013-02-03 15:33:00,72.9,37.0,29.92,NE,45,3.7,-999.0,27,-99.99,,,0.00,Acu-Link.com,2013-02-03 20:33:00,
2013-02-03 15:48:00,73.2,36.3,29.92,NNE,22,6.8,-999.0,26,-99.99,,,0.00,Acu-Link.com,2013-02-03 20:48:00,
2013-02-03 16:03:00,72.1,38.1,29.92,NNW,337,4.7,-999.0,29,-99.99,,,0.00,Acu-Link.com,2013-02-03 21:03:00,
2013-02-03 16:18:00,72.0,38.9,29.92,NE,45,7.8,-999.0,30,-99.99,,,0.00,Acu-Link.com,2013-02-03 21:18:00,
2013-02-03 16:33:00,71.1,38.1,29.92,NE,45,8.9,-999.0,30,-99.99,,,0.00,Acu-Link.com,2013-02-03 21:33:00,
2013-02-03 16:48:00,70.2,39.7,29.93,NE,45,6.3,-999.0,33,-99.99,,,0.00,Acu-Link.com,2013-02-03 21:48:00,
2013-02-03 17:03:00,69.6,40.0,29.93,East,90,6.8,-999.0,34,-99.99,,,0.00,Acu-Link.com,2013-02-03 22:03:00,
2013-02-03 17:19:00,69.3,40.5,29.93,East,90,7.3,-999.0,35,-99.99,,,0.00,Acu-Link.com,2013-02-03 22:19:00,
2013-02-03 17:34:00,68.9,39.4,29.93,ENE,67,4.7,-999.0,34,-99.99,,,0.00,Acu-Link.com,2013-02-03 22:34:00,
2013-02-03 17:49:00,68.5,39.8,29.93,ENE,67,4.2,-999.0,35,-99.99,,,0.00,Acu-Link.com,2013-02-03 22:49:00,
2013-02-03 18:04:00,67.1,40.0,29.93,East,90,4.2,-999.0,37,-99.99,,,0.00,Acu-Link.com,2013-02-03 23:04:00,
2013-02-03 18:19:00,65.7,40.7,29.93,ENE,67,2.7,-999.0,40,-99.99,,,0.00,Acu-Link.com,2013-02-03 23:19:00,
2013-02-03 18:34:00,64.4,41.4,29.94,ENE,67,2.7,-999.0,43,-99.99,,,0.00,Acu-Link.com,2013-02-03 23:34:00,
2013-02-03 18:49:00,63.7,43.1,29.94,ENE,67,2.7,-999.0,47,-99.99,,,0.00,Acu-Link.com,2013-02-03 23:49:00,
2013-02-03 19:04:00,62.8,42.3,29.93,ENE,67,0.0,-999.0,47,-99.99,,,0.00,Acu-Link.com,2013-02-04 00:04:00,
2013-02-03 19:19:00,61.2,42.9,29.94,ENE,67,0.0,-999.0,51,-99.99,,,0.00,Acu-Link.com,2013-02-04 00:19:00,
2013-02-03 19:35:00,60.3,45.0,29.94,SSE,157,0.0,-999.0,57,-99.99,,,0.00,Acu-Link.com,2013-02-04 00:35:00,
2013-02-03 19:50:00,60.3,45.0,29.95,SSE,157,2.7,-999.0,57,-99.99,,,0.00,Acu-Link.com,2013-02-04 00:50:00,
2013-02-03 20:05:00,59.2,44.9,29.95,SSE,157,0.0,-999.0,59,-99.99,,,0.00,Acu-Link.com,2013-02-04 01:05:00,
2013-02-03 20:20:00,57.4,45.7,29.96,SSE,157,0.0,-999.0,65,-99.99,,,0.00,Acu-Link.com,2013-02-04 01:20:00,
2013-02-03 20:35:00,56.1,45.7,29.96,SSE,157,0.0,-999.0,68,-99.99,,,0.00,Acu-Link.com,2013-02-04 01:35:00,
2013-02-03 20:50:00,56.7,47.0,29.95,SSE,157,0.0,-999.0,70,-99.99,,,0.00,Acu-Link.com,2013-02-04 01:50:00,
2013-02-03 21:05:00,55.8,48.3,29.96,SSE,157,0.0,-999.0,76,-99.99,,,0.00,Acu-Link.com,2013-02-04 02:05:00,
2013-02-03 21:20:00,55.8,44.6,29.96,SSE,157,0.0,-999.0,66,-99.99,,,0.00,Acu-Link.com,2013-02-04 02:20:00,
2013-02-03 21:35:00,56.3,45.1,29.97,SSE,157,2.2,-999.0,66,-99.99,,,0.00,Acu-Link.com,2013-02-04 02:35:00,
2013-02-03 21:51:00,56.3,45.1,29.96,SSE,157,0.0,-999.0,66,-99.99,,,0.00,Acu-Link.com,2013-02-04 02:51:00,
2013-02-03 22:06:00,55.8,46.5,29.96,SSE,157,0.0,-999.0,71,-99.99,,,0.00,Acu-Link.com,2013-02-04 03:06:00,
2013-02-03 22:40:00,55.8,48.0,29.96,SSE,157,1.1,-999.0,75,-99.99,,,0.00,Acu-Link.com,2013-02-04 03:40:00,
2013-02-03 22:55:00,53.8,48.1,29.97,SSE,157,0.0,-999.0,81,-99.99,,,0.00,Acu-Link.com,2013-02-04 03:55:00,
2013-02-03 23:10:00,53.1,48.7,29.97,SSE,157,0.0,-999.0,85,-99.99,,,0.00,Acu-Link.com,2013-02-04 04:10:00,
2013-02-03 23:25:00,52.7,48.3,29.96,SSE,157,0.0,-999.0,85,-99.99,,,0.00,Acu-Link.com,2013-02-04 04:25:00,
2013-02-03 23:40:00,53.4,48.4,29.96,SSE,157,0.0,-999.0,83,-99.99,,,0.00,Acu-Link.com,2013-02-04 04:40:00,
2013-02-03 23:56:00,53.6,46.6,29.96,SSE,157,0.0,-999.0,77,-99.99,,,0.00,Acu-Link.com,2013-02-04 04:56:00,